Flight Information

DEPARTURE
NORTH BEND, OR
Elevation:
17
Runways:
5/23 - 5980x150 - ASPH-G
13/31 - 4470x150 - ASPH-G
Ground:
127.1
Tower:
NORTH BEND TOWER 118.45
DESTINATION
,
Elevation:
TPA:
1000 (est.)


6847.4 NM65° True-18° Var46° HDG

Flight Plan:
(click to file on line)

1. Type
2. Aircraft Identification
3. Aircraft Type / Special Equipment
4. True Airspeed
kts
5. Departure Airport
(ICAO code)
6. Arriving Airport
(ICAO code)
7. Cruising Altitude
ft
8. Alternate Airport
(ICAO code)
9. Route of Flight
10. Remarks


00:00:00 Departure ATIS: Destination ATIS:

Clearance Limit:
Route:
Altitude: Expect in minutes
Frequency:
Transponder: (7500 Hijack / 7600 Lost Comms / 7700 Emergency)


KOTH 281156Z AUTO 35003KT 10SM CLR 13/12 A3012 RMK AO2 SLP200 T01280117 10150 20122 57014
Time: 2020-09-28T11:56:00Z
1601297829
Winds: 350 @ 3 kts
Visibility: 10.0 sm
Clouds (AGL): CLR
Temperature: 12.8 C
Dew Point: 11.7 C
Pressure: 30.121063 in Hgbr


Notes:

Data extracted from FAA Digital Chart Supplement. Effective: 0901Z Thursday, Sep 10, 2020 to 0901Z Thursday, Nov 5, 2020
Current ATIS data is provided courtisy of PilotEdge.